Regional Weather Roundup
Issued by NWS

Home | Current Version | Previous Version | Graphics & Text | Print | Product List | Glossary On
Versions: 1 2 3 4 5 6 7 8 9 10 11 12 13 14 15 16 17 18 19 20 21 22 23 24 25 26 27 28 29 30 31 32 33 34 35 36 37 38 39 40 41 42 43 44 45 46 47 48 49 50
000
ASUS43 KLSX 272110
RWRMO

WEATHER SUMMARY FOR MISSOURI
NATIONAL WEATHER SERVICE SPRINGFIELD MO
400 PM CDT FRI MAY 27 2016

NOTE: "FAIR" INDICATES FEW OR NO CLOUDS BELOW 12,000 FEET WITH NO
       SIGNIFICANT WEATHER AND/OR OBSTRUCTIONS TO VISIBILITY.
       CURRENT SKY AND/OR WEATHER CONDITIONS ARE NOT AVAILABLE FOR
       CHILLICOTHE AND FARMINGTON.

MOZ001>031-035>038-043-044-053-054-272200-
...NORTHERN AND WESTERN MISSOURI...

CITY           SKY/WX    TMP DP  RH WIND       PRES   REMARKS
KANSAS CTY INT TSTM      73  67  81 W3        29.74F
KANSAS C DTWN  TSTM      66  63  90 W8        29.72R VSB 3/4
LEE`S SUMMIT   LGT RAIN  76  67  73 SW15      29.74F
ST JOSEPH      CLOUDY    76  63  64 S5        29.73F
CHILLICOTHE      N/A     82  68  62 SE7       29.74S
KIRKSVILLE     MOSUNNY   82  69  64 SW8       29.76S

$$
MOZ066>068-077>081-088>096-101>105-272200-
...SOUTHWEST MISSOURI...

CITY           SKY/WX    TMP DP  RH WIND       PRES   REMARKS
SPRINGFIELD    LGT RAIN  72  67  84 S9        29.77F
JOPLIN         CLOUDY    71  67  87 VRB3      29.75S
BRANSON        CLOUDY    72  68  88 SE7       29.81R

$$
MOZ032>034-039>042-045>050-055>058-069>072-272200-
...CENTRAL MISSOURI...

CITY           SKY/WX    TMP DP  RH WIND       PRES   REMARKS
COLUMBIA       CLOUDY    78  68  71 S10       29.76F
JEFFERSON CITY CLOUDY    80  68  66 S9        29.75S
ROLLA          CLOUDY    76  68  76 S12       29.77F
SEDALIA        MOSUNNY   82  68  62 S9        29.75F
WHITEMAN AFB   PTSUNNY   78  69  73 SW13      29.73F
WARRENSBURG    MOSUNNY   77  66  69 S13       29.73F

$$
MOZ051-052-059>065-272200-
...EAST CENTRAL MISSOURI...

CITY           SKY/WX    TMP DP  RH WIND       PRES   REMARKS
ST LOUIS INTL  CLOUDY    78  68  71 S12G21    29.82F
SPIRIT OF STL  CLOUDY    79  70  74 S7        29.79F
ST CHARLES     CLOUDY    77  71  82 S15       29.79F

$$
MOZ072>076-082>087-097>100-106>115-272200-
...SOUTH CENTRAL AND SOUTHEAST MISSOURI...

CITY           SKY/WX    TMP DP  RH WIND       PRES   REMARKS
CAPE GIRARDEAU CLOUDY    72  69  90 SW9       29.87F
FARMINGTON     LGT RAIN  73  69  87 S16G22    29.85S
POPLAR BLUFF   LGT RAIN  72  67  84 S12       29.86S
WEST PLAINS    CLOUDY    71  66  84 SE9       29.84R

$$




USA.gov is the U.S. government's official web portal to all federal, state and local government web resources and services.